Location: Jalan Sepang
(2.8072°N, 101.8021°E)
Time: 05:49:14
(UTC+00:00)

Ariane H10+ - Pass Details

Date: 15 May 2026
Orbit: 221 x 2415 km, 6.7° (Epoch: 1 June)

Event Time Altitude Azimuth Distance (km) Brightness Sun altitude
Exits shadow 20:39:14 48° 287° (WNW) 2,870 4.5 -34.0°
Maximum altitude 20:44:55 79° 4° (N) 2,480 4.4 -32.7°
Drops below altitude 10° 21:00:21 10° 90° (E) 4,912 6.9 -29.2°
Sets 21:03:59 0° 91° (E) 5,745 7.5 -28.3°
